Lake Clear, NY

10:03 AM EST on February 12, 2016 (GMT -0500)
Adirondack Regional

Weather History for KSLK - February, 2013

Change the Weather History Date:

Monday, February 11, 2013

  Actual Average Record
Temperature  
Mean Temperature 21 °F 14 °F  
Max Temperature 37 °F 27 °F - ()
Min Temperature 4 °F 1 °F - ()
Degree Days  
Heating Degree Days 44 51  
Month to date heating degree days 655 567  
Since 1 July heating degree days 5564 5869  
Cooling Degree Days 0 0  
Month to date cooling degree days 0  
Year to date cooling degree days 0  
Moisture  
Dew Point 26 °F    
Average Humidity 85    
Maximum Humidity 100    
Minimum Humidity 69    
Precipitation  
Precipitation 0.10 in 0.06 in - ()
Month to date precipitation 0.38 0.66  
Year to date precipitation 1.61 2.79  
Sea Level Pressure  
Sea Level Pressure 29.72 in    
Wind  
Wind Speed 8 mph (SW)    
Max Wind Speed 23 mph    
Max Gust Speed 35 mph    
Visibility 7 miles    
Events Rain , Snow    
T = Trace of Precipitation, MM = Missing Value Source: NWS Daily Summary

Daily Weather History Graph

Daily Weather History Graph

Search for Another Location

Airport or City:

Trip Planner

Search our weather history database for the weather conditions in past years. The results will help you decide how hot, cold, wet, or windy it might be!

Date:

Astronomy

Feb. 11, 2013 Rise Set
Actual Time 7:02 AM EST 5:20 PM EST
Civil Twilight 6:32 AM EST 5:50 PM EST
Nautical Twilight 5:57 AM EST 6:24 PM EST
Astronomical Twilight 5:24 AM EST 6:58 PM EST
Moon 7:19 AM EST (2/11) 7:21 PM EST (2/11)
Length of Visible Light 11h 18m
Length of Day
10h 18m
Waxing Crescent, 3% of the Moon is Illuminated
Feb 11
Waxing Crescent
Feb 17
First Quarter
Feb 25
Full
Mar 4
Last Quarter
Mar 11
New

Hourly Weather History & Observations

Time (EST) Temp. Windchill Dew Point Humidity Pressure Visibility Wind Dir Wind Speed Gust Speed Precip Events Conditions
12:51 AM 7.0 °F -1.7 °F 3.0 °F 84% 30.13 in 10.0 mi NNE 4.6 mph - N/A   Scattered Clouds
1:51 AM 10.0 °F - 7.0 °F 87% 30.09 in 10.0 mi Calm Calm - N/A   Overcast
2:51 AM 12.9 °F - 9.0 °F 84% 30.06 in 10.0 mi Calm Calm - N/A   Overcast
3:51 AM 16.0 °F - 10.0 °F 77% 29.99 in 10.0 mi Calm Calm - N/A   Overcast
4:51 AM 18.0 °F - 12.0 °F 78% 29.97 in 10.0 mi Calm Calm - N/A   Overcast
5:51 AM 21.0 °F - 15.1 °F 78% 29.94 in 10.0 mi Calm Calm - N/A   Overcast
6:51 AM 21.9 °F - 16.0 °F 78% 29.89 in 10.0 mi Calm Calm - N/A   Overcast
7:51 AM 27.0 °F - 19.9 °F 75% 29.87 in 10.0 mi Calm Calm - N/A   Overcast
8:51 AM 30.0 °F 23.2 °F 21.9 °F 72% 29.85 in 10.0 mi South 6.9 mph - 0.00 in   Overcast
9:51 AM 34.0 °F 21.8 °F 27.0 °F 75% 29.81 in 10.0 mi SSW 23.0 mph 27.6 mph 0.00 in   Overcast
10:14 AM 32.0 °F 23.0 °F 26.6 °F 80% 29.72 in 1.5 mi SW 11.5 mph 19.6 mph 0.00 in Snow Light Snow
10:24 AM 30.2 °F 21.3 °F 26.6 °F 86% 29.71 in 0.8 mi SW 10.4 mph 20.7 mph 0.00 in Snow Light Snow
10:30 AM 30.2 °F 21.3 °F 26.6 °F 86% 29.71 in 2.0 mi SW 10.4 mph 19.6 mph 0.00 in Snow Light Snow
10:41 AM 30.2 °F 22.6 °F 28.4 °F 93% 29.71 in 4.0 mi WSW 8.1 mph - 0.00 in Snow Light Snow
10:51 AM 32.0 °F 24.2 °F 27.0 °F 82% 29.79 in 9.0 mi WSW 9.2 mph - 0.00 in   Overcast
11:51 AM 34.0 °F 25.5 °F 28.9 °F 82% 29.74 in 9.0 mi SW 11.5 mph - 0.00 in   Overcast
12:51 PM 34.0 °F 25.0 °F 28.9 °F 82% 29.72 in 10.0 mi SW 12.7 mph 21.9 mph N/A   Overcast
1:05 PM 33.8 °F 23.9 °F 30.2 °F 87% 29.62 in 2.5 mi SSW 15.0 mph 23.0 mph 0.00 in Snow Light Snow
1:12 PM 33.8 °F 26.4 °F 30.2 °F 87% 29.60 in 3.0 mi SSW 9.2 mph 18.4 mph 0.01 in Snow Light Snow
1:32 PM 35.6 °F 27.1 °F 30.2 °F 81% 29.61 in 10.0 mi SW 12.7 mph - 0.01 in   Overcast
1:51 PM 34.0 °F 26.0 °F 30.9 °F 89% 29.67 in 8.0 mi SW 10.4 mph - 0.01 in   Overcast
2:51 PM 35.1 °F 27.4 °F 32.0 °F 89% 29.65 in 10.0 mi SW 10.4 mph - N/A   Overcast
3:51 PM 36.0 °F 27.5 °F 33.1 °F 89% 29.61 in 10.0 mi SSW 12.7 mph - N/A   Overcast
4:30 PM 35.6 °F 28.6 °F 33.8 °F 93% 29.54 in 10.0 mi WSW 9.2 mph - N/A   Overcast
4:51 PM 36.0 °F 29.6 °F 32.0 °F 86% 29.60 in 10.0 mi SW 8.1 mph - N/A   Overcast
5:51 PM 35.1 °F 30.1 °F 33.1 °F 92% 29.59 in 7.0 mi SW 5.8 mph - 0.01 in   Overcast
6:42 PM 33.8 °F 29.6 °F 33.8 °F 100% 29.55 in 3.0 mi WSW 4.6 mph - 0.02 in Snow Light Snow
6:51 PM 34.0 °F 29.8 °F 33.1 °F 96% 29.60 in 3.0 mi West 4.6 mph - 0.03 in Snow Light Snow
6:58 PM 33.8 °F 30.8 °F 33.8 °F 100% 29.55 in 4.0 mi West 3.5 mph - 0.00 in Rain Rain
7:38 PM 33.8 °F 27.0 °F 32.0 °F 93% 29.57 in 2.5 mi SW 8.1 mph - 0.04 in Snow Light Snow
7:51 PM 33.1 °F 24.9 °F 32.0 °F 96% 29.62 in 2.5 mi SW 10.4 mph 16.1 mph 0.05 in Snow Light Snow
8:09 PM 33.8 °F 21.9 °F 30.2 °F 87% 29.57 in 1.8 mi WSW 21.9 mph 34.5 mph 0.00 in Snow Light Snow
8:19 PM 32.0 °F 20.1 °F 30.2 °F 93% 29.58 in 1.5 mi SW 19.6 mph 28.8 mph 0.00 in Snow Light Snow
8:33 PM 32.0 °F 19.8 °F 28.4 °F 87% 29.57 in 3.0 mi SW 20.7 mph 34.5 mph 0.00 in Snow Light Snow
8:51 PM 32.0 °F 21.2 °F 28.9 °F 88% 29.61 in 9.0 mi WSW 16.1 mph 24.2 mph 0.00 in   Overcast
9:51 PM 30.9 °F 22.2 °F 28.0 °F 89% 29.60 in 3.0 mi WSW 10.4 mph - 0.00 in Snow Light Snow
10:51 PM 30.0 °F 19.1 °F 26.1 °F 85% 29.61 in 9.0 mi WSW 15.0 mph 26.5 mph 0.00 in   Overcast
11:51 PM 30.0 °F 21.1 °F 26.1 °F 85% 29.59 in 6.0 mi WSW 10.4 mph 23.0 mph 0.00 in   Overcast